User: anonymous   Login
Location: Baix
(44.7118°N, 4.7648°E)
Time: 17:36:36
(UTC+00:00)
Language:

Cosmos 1805 - Orbit

View from above orbital plane
View from above orbital plane
View from above satellite
View from above satellite

Ground track
Ground track

The orbit data is extracted from the following two-line orbital elements,

1 17191U 86097A   20298.43663474  .00000925  00000-0  51073-4 0  9993
2 17191  82.4733 261.7185 0005144 155.9711 204.1761 15.12733574848820
Epoch (UTC): 24 October 2020 10:28:45
Eccentricity: 0.0005144
inclination: 82.4733°
perigee height: 524 km
apogee height: 531 km
right ascension of ascending node: 261.7185°
argument of perigee: 155.9711°
revolutions per day: 15.12733574
mean anomaly at epoch: 204.1761°
orbit number at epoch: 84882

The dashed part of the orbit path shows where the satellite is in the earth's shadow,  

DLR